Location: Kerguer�zec
(48.4509°N, 4.7600°W)
Time: 23:00:21
(UTC+00:00)

N. Korean satellite - Pass Details

Date: 09 March 2021
Orbit: 453 x 499 km, 97.2° (Epoch: 12 April)

Event Time Altitude Azimuth Distance (km) Brightness Sun altitude
Rises 05:49:56 0° 13° (NNE) 2,542 10.5 -9.9°
Reaches altitude 10° 05:51:59 10° 14° (NNE) 1,666 9.5 -9.5°
Maximum altitude 05:55:35 85° 102° (ESE) 494 6.6 -8.9°
Drops below altitude 10° 05:59:12 10° 192° (SSW) 1,677 9.1 -8.3°
Sets 06:01:16 0° 193° (SSW) 2,560 10.1 -8.0°
